Voltar ao catálogo

ARIANE 3 DEB

LostGTO
NORAD 27648·DEBRIS·🇫🇷 France

Lançado Aug 4, 1984 de Guiana Space Centre

Loading…

TLE

ObsoletoSource: Space-Track

Época: Jun 7, 2026, 04:59 UTC

1 27648U 84081F   26158.20801459 -.00000029  00000-0  13584-1 0  9993
2 27648   5.7531  33.6387 7174473 208.9649  77.5843  2.10251691206268

Acompanhe ARIANE 3 DEB em tempo real com AllMySat

Download on the App Store